Flag for Austria Weather past 2 weeks in Klosterneuburg, Lower Austria, Austria

Now
37 °F

Passing clouds.


Feels Like: 28 °F
Forecast: 30 / 45 °F
Wind: 15 mph from West

Location: Tulln Airport

Current Time: Mar 3, 2015 at 8:45:55 AM

Latest Report: Mar 3, 2015 at 7:50 AM


Visibility: 25 mi

Pressure: 30.15 "Hg

Humidity: 75%

Dew point: 30 °F

Location of KlosterneuburgLocation

Historic Weather in Klosterneuburg — Graph

°F

Klosterneuburg temperature yesterday

Maximum temperature yesterday: 52 °F (at 9:50 AM)
Minimum temperature yesterday: 41 °F (at 6:50 PM)
Average temperature yesterday: 45 °F

Past Weeks' High & Low Weather Summary

 TemperatureHumidityPressure
High52 °F (Feb 20, 1:50 PM)100% (Feb 20, 7:50 AM)30.74 "Hg (Feb 20, 7:50 AM)
Low23 °F (Feb 20, 4:50 AM)46% (Feb 16, 12:50 PM)29.56 "Hg (Feb 21, 7:50 PM)
Average40 °F79%30.04 "Hg
* Reported Feb 16 7:50 AM — Mar 3 7:50 AM, Klosterneuburg, Weather by CustomWeather, © 2015

Note: Actual official high and low records may vary slightly from our data, if they occured in-between our weather recording intervals... More about our weather records

Advertising

Klosterneuburg weather history for previous 24 hours

 ConditionsComfort  
Time TempWeatherWind HumidityBarometerVisibility
7:50 AM
Tue, Mar 3
37 °FPassing clouds.15 mph75%30.15 "Hg25 mi
6:50 AM36 °FScattered clouds.14 mph81%30.12 "Hg19 mi
5:50 AM36 °FPassing clouds.15 mph81%30.12 "Hg16 mi
4:50 AM36 °FPassing clouds.18 mph87%30.09 "Hg16 mi
9:50 PM
Mon, Mar 2
41 °FPassing clouds.18 mph81%29.92 "Hg16 mi
8:50 PM41 °FPassing clouds.13 mph76%29.89 "Hg16 mi
7:50 PM41 °FPassing clouds.17 mph81%29.86 "Hg16 mi
6:50 PM41 °FPassing clouds.16 mph81%29.83 "Hg16 mi
5:50 PM43 °FPassing clouds.21 mph76%29.80 "Hg31 mi
4:50 PM45 °FPartly sunny.24 mph76%29.77 "Hg22 mi
3:50 PM45 °FPartly sunny.26 mph81%29.74 "Hg25 mi
2:50 PM45 °FSprinkles. Partly sunny.15 mph87%29.74 "Hg12 mi
1:50 PM43 °FLight rain. Partly sunny.8 mph87%29.74 "Hg12 mi
12:50 PM43 °FRain. Overcast.16 mph87%29.74 "Hg5 mi
11:50 AM50 °FSprinkles. Broken clouds.21 mph82%29.65 "Hg11 mi
10:50 AM52 °FSprinkles. Broken clouds.25 mph72%29.65 "Hg31 mi
9:50 AM52 °FPartly sunny.13 mph77%29.65 "Hg31 mi
8:50 AM50 °FBroken clouds.6 mph76%29.65 "Hg31 mi
Weather by CustomWeather, © 2015

See weather overviewHow to use our weather pages